CW4482 Weather Reports


time (UTC)temp
F
wind
direction
speed
knots
gust
knots
rain 1hr
in
rain 24hr
in
rain mn
in
humidity
%
barometer
mb
20260505041515 72 182 1.7 7.0 0.00 0.00 0.00 83 1010.6
20260505040037 72 154 1.7 6.1 0.00 0.00 0.00 81 1010.8
20260505034537 73 177 1.7 9.6 0.00 0.00 0.00 80 1011.0
20260505033013 73 192 2.6 11.3 0.00 0.00 0.00 79 1011.0
20260505031529 73 197 3.5 7.8 0.00 0.00 0.00 79 1011.0
20260505030011 73 190 1.7 9.6 0.00 0.00 0.00 79 1010.8
20260505024537 73 162 2.6 9.6 0.00 0.00 0.00 78 1010.9
20260505023021 73 165 4.3 9.6 0.00 0.00 0.00 78 1010.8
20260505021520 73 213 2.6 8.7 0.00 0.00 0.00 77 1010.8
20260505020022 73 162 2.6 9.6 0.00 0.00 0.00 78 1010.7
20260505014517 73 153 3.5 8.7 0.00 0.00 0.00 77 1010.3
20260505013037 73 208 3.5 8.7 0.00 0.00 0.00 77 1010.2
20260505011528 74 133 2.6 10.4 0.00 0.00 0.00 77 1010.4
20260505010023 74 173 1.7 7.8 0.00 0.00 0.00 78 1010.3
20260505004526 75 171 1.7 7.8 0.00 0.00 0.00 75 1010.2
20260505003021 76 171 1.7 6.1 0.00 0.00 0.00 74 1010.3
20260505001538 76 169 1.7 7.0 0.00 0.00 0.00 75 1010.4
20260505000011 76 200 2.6 8.7 0.00 0.00 0.00 72 1010.3
20260504234512 77 157 2.6 8.7 0.00 0.00 0.00 70 1010.4
20260504233030 77 173 3.5 9.6 0.00 0.00 0.00 70 1010.5
20260504231531 78 168 5.2 9.6 0.00 0.00 0.00 70 1010.7
20260504230050 79 182 1.7 8.7 0.00 0.00 0.00 68 1010.7
20260504224524 80 208 2.6 11.3 0.00 0.00 0.00 67 1010.8
20260504223029 80 201 5.2 13.9 0.00 0.00 0.00 67 1011.0
20260504221517 80 161 1.7 11.3 0.00 0.00 0.00 67 1011.2
20260504220018 80 183 3.5 8.7 0.00 0.00 0.00 66 1011.2
20260504214520 81 135 3.5 10.4 0.00 0.00 0.00 66 1011.2
20260504213020 83 176 4.3 11.3 0.00 0.00 0.00 63 1011.6
20260504211515 85 184 0.9 7.0 0.00 0.00 0.00 63 1011.7
20260504210024 84 191 0.9 7.0 0.00 0.00 0.00 63 1012.0
20260504204524 84 130 0.9 7.8 0.00 0.00 0.00 62 1012.0
20260504203019 83 148 4.3 8.7 0.00 0.00 0.00 61 1012.3
20260504201538 83 141 1.7 8.7 0.00 0.00 0.00 63 1012.4
20260504200014 83 128 2.6 12.2 0.00 0.00 0.00 61 1012.7
20260504194526 83 138 2.6 7.0 0.00 0.00 0.00 58 1012.8
20260504193045 84 206 3.5 7.8 0.00 0.00 0.00 57 1013.1
20260504191527 84 180 2.6 9.6 0.00 0.00 0.00 54 1013.4
20260504190045 84 185 4.3 8.7 0.00 0.00 0.00 53 1013.3
20260504184525 83 193 4.3 13.0 0.00 0.00 0.00 57 1013.7
20260504183025 83 188 3.5 9.6 0.00 0.00 0.00 57 1013.5
20260504181512 82 192 2.6 9.6 0.00 0.00 0.00 57 1014.0
20260504180012 81 186 3.5 8.7 0.00 0.00 0.00 61 1014.1
20260504174511 80 200 2.6 9.6 0.00 0.00 0.00 60 1014.3
20260504173035 80 173 2.6 9.6 0.00 0.00 0.00 64 1014.4
20260504171514 80 148 5.2 12.2 0.00 0.00 0.00 57 1014.8
20260504081518 59 159 0.0 0.0 0.00 0.00 0.00 87 1016.1
20260504050021 60 159 0.0 0.9 0.00 0.00 0.00 83 1018.0